Time,TemperatureF,DewpointF,PressureIn,WindDirection,WindDirectionDegrees,WindSpeedMPH,WindSpeedGustMPH,Humidity,HourlyPrecipIn,Conditions,Clouds,dailyrainin,SoftwareType,DateUTC
2013-02-13 00:02:00,22.0,19.0,-100.00,WSW,250,6.0,9.0,87,0.00,,,0.00,,2013-02-13 06:02:00,
2013-02-13 00:11:00,22.0,19.0,-100.00,SW,235,5.0,7.0,88,0.00,,,0.00,,2013-02-13 06:11:00,
2013-02-13 00:21:00,22.0,19.0,-100.00,SW,235,4.0,7.0,88,0.00,,,0.00,,2013-02-13 06:21:00,
2013-02-13 00:32:00,22.0,19.0,-100.00,SW,235,4.0,6.0,88,0.00,,,0.00,,2013-02-13 06:32:00,
2013-02-13 00:42:00,21.0,19.0,-100.00,SW,230,5.0,6.0,89,0.00,,,0.00,,2013-02-13 06:42:00,
2013-02-13 00:51:00,22.0,19.0,-100.00,WSW,240,5.0,6.0,89,0.00,,,0.00,,2013-02-13 06:51:00,
2013-02-13 01:02:00,22.0,19.0,-100.00,SW,225,4.0,6.0,89,0.00,,,0.00,,2013-02-13 07:02:00,
2013-02-13 01:11:00,22.0,19.0,-100.00,SW,220,5.0,6.0,90,0.00,,,0.00,,2013-02-13 07:11:00,
2013-02-13 01:21:00,21.0,19.0,-100.00,SW,230,6.0,7.0,90,0.00,,,0.00,,2013-02-13 07:21:00,
2013-02-13 01:31:00,22.0,19.0,-100.00,SW,235,5.0,9.0,90,0.00,,,0.00,,2013-02-13 07:31:00,
2013-02-13 01:41:00,22.0,19.0,-100.00,SW,225,7.0,7.0,90,0.00,,,0.00,,2013-02-13 07:41:00,
2013-02-13 01:51:00,21.0,19.0,-100.00,SW,215,7.0,7.0,90,0.00,,,0.00,,2013-02-13 07:51:00,
2013-02-13 02:01:00,22.0,19.0,-100.00,SW,230,7.0,9.0,90,0.00,,,0.00,,2013-02-13 08:01:00,
2013-02-13 02:11:00,22.0,19.0,-100.00,SW,230,7.0,9.0,90,0.00,,,0.00,,2013-02-13 08:11:00,
2013-02-13 02:21:00,22.0,19.0,-100.00,SW,230,7.0,9.0,90,0.00,,,0.00,,2013-02-13 08:21:00,
2013-02-13 02:32:00,22.0,19.0,-100.00,SW,235,7.0,9.0,90,0.00,,,0.00,,2013-02-13 08:32:00,
2013-02-13 02:43:00,22.0,19.0,-100.00,WSW,240,7.0,9.0,90,0.00,,,0.00,,2013-02-13 08:43:00,
2013-02-13 02:52:00,22.0,19.0,-100.00,SW,235,6.0,9.0,90,0.00,,,0.00,,2013-02-13 08:52:00,
2013-02-13 03:01:00,22.0,19.0,-100.00,SW,230,6.0,7.0,91,0.00,,,0.00,,2013-02-13 09:01:00,
2013-02-13 03:11:00,22.0,21.0,-100.00,WSW,240,9.0,11.0,91,0.00,,,0.00,,2013-02-13 09:11:00,
2013-02-13 03:21:00,22.0,21.0,-100.00,WSW,245,7.0,9.0,91,0.00,,,0.00,,2013-02-13 09:21:00,
2013-02-13 03:31:00,22.0,19.0,-100.00,WSW,240,6.0,7.0,91,0.00,,,0.00,,2013-02-13 09:31:00,
2013-02-13 03:41:00,21.0,19.0,-100.00,WSW,255,5.0,6.0,91,0.00,,,0.00,,2013-02-13 09:41:00,
2013-02-13 03:51:00,21.0,19.0,-100.00,WSW,245,5.0,7.0,91,0.00,,,0.00,,2013-02-13 09:51:00,
2013-02-13 04:01:00,21.0,19.0,-100.00,SW,235,6.0,7.0,92,0.00,,,0.00,,2013-02-13 10:01:00,
2013-02-13 04:11:00,21.0,19.0,-100.00,WSW,245,5.0,6.0,92,0.00,,,0.00,,2013-02-13 10:11:00,
2013-02-13 04:21:00,20.0,18.0,-100.00,SW,230,6.0,6.0,92,0.00,,,0.00,,2013-02-13 10:21:00,
2013-02-13 04:32:00,20.0,19.0,-100.00,SW,230,4.0,6.0,93,0.00,,,0.00,,2013-02-13 10:32:00,
2013-02-13 04:41:00,20.0,19.0,-100.00,SW,215,4.0,5.0,93,0.00,,,0.00,,2013-02-13 10:41:00,
2013-02-13 04:51:00,19.0,18.0,-100.00,SW,225,4.0,4.0,93,0.00,,,0.00,,2013-02-13 10:51:00,
2013-02-13 05:01:00,19.0,18.0,-100.00,SW,220,3.0,4.0,94,0.00,,,0.00,,2013-02-13 11:01:00,
2013-02-13 05:11:00,18.0,18.0,-100.00,SSW,210,4.0,6.0,93,0.00,,,0.00,,2013-02-13 11:11:00,
2013-02-13 05:22:00,17.0,16.0,-100.00,SSW,210,2.0,4.0,93,0.00,,,0.00,,2013-02-13 11:22:00,
2013-02-13 05:32:00,17.0,16.0,-100.00,SSW,200,2.0,3.0,93,0.00,,,0.00,,2013-02-13 11:32:00,
2013-02-13 05:42:00,17.0,16.0,-100.00,SSW,205,2.0,3.0,93,0.00,,,0.00,,2013-02-13 11:42:00,
2013-02-13 05:52:00,18.0,16.0,-100.00,SW,230,1.0,3.0,93,0.00,,,0.00,,2013-02-13 11:52:00,
2013-02-13 06:02:00,18.0,16.0,-100.00,SW,235,2.0,3.0,93,0.00,,,0.00,,2013-02-13 12:02:00,
2013-02-13 06:11:00,17.0,16.0,-100.00,SW,220,3.0,4.0,93,0.00,,,0.00,,2013-02-13 12:11:00,
2013-02-13 06:21:00,17.0,16.0,-100.00,South,185,1.0,4.0,94,0.00,,,0.00,,2013-02-13 12:21:00,
2013-02-13 06:32:00,15.0,14.0,-100.00,SE,135,1.0,2.0,93,0.00,,,0.00,,2013-02-13 12:32:00,
2013-02-13 06:42:00,15.0,14.0,-100.00,SE,140,0.0,1.0,93,0.00,,,0.00,,2013-02-13 12:42:00,
2013-02-13 06:52:00,15.0,14.0,-100.00,SSW,195,1.0,1.0,94,0.00,,,0.00,,2013-02-13 12:52:00,
2013-02-13 07:02:00,15.0,12.0,-100.00,SSW,200,1.0,1.0,93,0.00,,,0.00,,2013-02-13 13:02:00,
2013-02-13 07:11:00,15.0,12.0,-100.00,SSW,195,2.0,2.0,93,0.00,,,0.00,,2013-02-13 13:11:00,
2013-02-13 07:21:00,14.0,12.0,-100.00,SSW,205,3.0,4.0,93,0.00,,,0.00,,2013-02-13 13:21:00,
2013-02-13 07:32:00,14.0,12.0,-100.00,WSW,240,2.0,3.0,93,0.00,,,0.00,,2013-02-13 13:32:00,
2013-02-13 07:41:00,15.0,12.0,-100.00,SW,225,4.0,5.0,93,0.00,,,0.00,,2013-02-13 13:41:00,
2013-02-13 07:51:00,14.0,12.0,-100.00,SW,225,3.0,5.0,93,0.00,,,0.00,,2013-02-13 13:51:00,
2013-02-13 08:01:00,14.0,12.0,-100.00,SW,225,5.0,6.0,93,0.00,,,0.00,,2013-02-13 14:01:00,
2013-02-13 08:11:00,15.0,14.0,-100.00,SW,220,4.0,5.0,93,0.00,,,0.00,,2013-02-13 14:11:00,
2013-02-13 08:21:00,15.0,14.0,-100.00,SW,225,6.0,6.0,93,0.00,,,0.00,,2013-02-13 14:21:00,
2013-02-13 08:31:00,15.0,14.0,-100.00,WSW,245,2.0,6.0,93,0.00,,,0.00,,2013-02-13 14:31:00,
2013-02-13 08:41:00,17.0,16.0,-100.00,SW,215,3.0,3.0,93,0.00,,,0.00,,2013-02-13 14:41:00,
2013-02-13 08:52:00,20.0,18.0,-100.00,SSW,210,3.0,4.0,93,0.00,,,0.00,,2013-02-13 14:52:00,
2013-02-13 09:01:00,20.0,19.0,-100.00,SW,220,4.0,4.0,93,0.00,,,0.00,,2013-02-13 15:01:00,
2013-02-13 09:11:00,19.0,18.0,-100.00,SW,225,4.0,5.0,92,0.00,,,0.00,,2013-02-13 15:11:00,
2013-02-13 09:21:00,21.0,19.0,-100.00,WSW,250,6.0,7.0,92,0.00,,,0.00,,2013-02-13 15:21:00,
2013-02-13 09:32:00,23.0,21.0,-100.00,WSW,245,3.0,6.0,93,0.00,,,0.00,,2013-02-13 15:32:00,
2013-02-13 09:42:00,23.0,21.0,-100.00,WSW,250,6.0,9.0,93,0.00,,,0.00,,2013-02-13 15:42:00,
2013-02-13 09:51:00,23.0,21.0,-100.00,WSW,255,4.0,7.0,93,0.00,,,0.00,,2013-02-13 15:51:00,
2013-02-13 10:01:00,24.0,21.0,-100.00,WSW,250,6.0,7.0,93,0.00,,,0.00,,2013-02-13 16:01:00,
2013-02-13 10:11:00,24.0,23.0,-100.00,WSW,240,3.0,6.0,92,0.00,,,0.00,,2013-02-13 16:11:00,
2013-02-13 10:21:00,27.0,25.0,-100.00,WSW,255,4.0,4.0,89,0.00,,,0.00,,2013-02-13 16:21:00,
2013-02-13 10:31:00,28.0,23.0,-100.00,West,260,3.0,6.0,84,0.00,,,0.00,,2013-02-13 16:31:00,
2013-02-13 10:42:00,29.0,23.0,-100.00,West,260,4.0,6.0,79,0.00,,,0.00,,2013-02-13 16:42:00,
2013-02-13 10:51:00,29.0,23.0,-100.00,WSW,240,4.0,6.0,77,0.00,,,0.00,,2013-02-13 16:51:00,
2013-02-13 11:01:00,29.0,23.0,-100.00,WSW,240,4.0,5.0,76,0.00,,,0.00,,2013-02-13 17:01:00,
2013-02-13 11:11:00,29.0,23.0,-100.00,SW,235,3.0,4.0,75,0.00,,,0.00,,2013-02-13 17:11:00,
2013-02-13 11:21:00,32.0,23.0,-100.00,SSW,205,1.0,3.0,69,0.00,,,0.00,,2013-02-13 17:21:00,
2013-02-13 11:31:00,33.0,23.0,-100.00,NNW,330,2.0,4.0,66,0.00,,,0.00,,2013-02-13 17:31:00,
2013-02-13 11:41:00,34.0,23.0,-100.00,WSW,245,2.0,6.0,62,0.00,,,0.00,,2013-02-13 17:41:00,
2013-02-13 11:52:00,34.0,23.0,-100.00,WSW,255,3.0,5.0,61,0.00,,,0.00,,2013-02-13 17:52:00,
2013-02-13 12:01:00,36.0,21.0,-100.00,West,265,1.0,6.0,55,0.00,,,0.00,,2013-02-13 18:01:00,
2013-02-13 12:11:00,38.0,21.0,-100.00,West,280,2.0,4.0,50,0.00,,,0.00,,2013-02-13 18:11:00,
2013-02-13 12:22:00,38.0,21.0,-100.00,WSW,255,2.0,2.0,49,0.00,,,0.00,,2013-02-13 18:22:00,
2013-02-13 12:32:00,35.0,21.0,-100.00,WSW,240,4.0,7.0,55,0.00,,,0.00,,2013-02-13 18:32:00,
2013-02-13 12:41:00,35.0,21.0,-100.00,West,265,2.0,6.0,57,0.00,,,0.00,,2013-02-13 18:41:00,
2013-02-13 12:52:00,33.0,21.0,-100.00,South,180,2.0,5.0,60,0.00,,,0.00,,2013-02-13 18:52:00,
2013-02-13 13:01:00,35.0,21.0,-100.00,South,185,1.0,3.0,59,0.00,,,0.00,,2013-02-13 19:01:00,
2013-02-13 13:11:00,36.0,23.0,-100.00,South,190,1.0,2.0,58,0.00,,,0.00,,2013-02-13 19:11:00,
2013-02-13 13:21:00,39.0,21.0,-100.00,SSW,195,0.0,1.0,51,0.00,,,0.00,,2013-02-13 19:21:00,
2013-02-13 13:31:00,41.0,23.0,-100.00,South,190,0.0,1.0,47,0.00,,,0.00,,2013-02-13 19:31:00,
2013-02-13 13:41:00,38.0,21.0,-100.00,South,185,1.0,2.0,49,0.00,,,0.00,,2013-02-13 19:41:00,
2013-02-13 13:51:00,35.0,21.0,-100.00,SSW,205,3.0,4.0,56,0.00,,,0.00,,2013-02-13 19:51:00,
2013-02-13 14:02:00,34.0,21.0,-100.00,SSW,200,3.0,4.0,59,0.00,,,0.00,,2013-02-13 20:02:00,
2013-02-13 14:11:00,33.0,23.0,-100.00,SSW,210,4.0,6.0,63,0.00,,,0.00,,2013-02-13 20:11:00,
2013-02-13 14:21:00,33.0,23.0,-100.00,SW,225,4.0,6.0,65,0.00,,,0.00,,2013-02-13 20:21:00,
2013-02-13 14:31:00,33.0,23.0,-100.00,SSW,200,4.0,6.0,65,0.00,,,0.00,,2013-02-13 20:31:00,
2013-02-13 14:41:00,34.0,23.0,-100.00,SW,220,4.0,5.0,65,0.00,,,0.00,,2013-02-13 20:41:00,
2013-02-13 14:52:00,34.0,23.0,-100.00,SW,225,6.0,7.0,64,0.00,,,0.00,,2013-02-13 20:52:00,
2013-02-13 15:01:00,34.0,23.0,-100.00,WSW,245,5.0,7.0,65,0.00,,,0.00,,2013-02-13 21:01:00,
2013-02-13 15:11:00,34.0,23.0,-100.00,SW,235,5.0,7.0,65,0.00,,,0.00,,2013-02-13 21:11:00,
2013-02-13 15:21:00,35.0,25.0,-100.00,West,275,2.0,6.0,63,0.00,,,0.00,,2013-02-13 21:21:00,
2013-02-13 15:31:00,36.0,23.0,-100.00,West,280,2.0,4.0,61,0.00,,,0.00,,2013-02-13 21:31:00,
2013-02-13 15:42:00,36.0,23.0,-100.00,WSW,245,2.0,4.0,60,0.00,,,0.00,,2013-02-13 21:42:00,
2013-02-13 15:52:00,36.0,23.0,-100.00,West,265,2.0,3.0,60,0.00,,,0.00,,2013-02-13 21:52:00,
2013-02-13 16:02:00,35.0,23.0,-100.00,WSW,240,3.0,4.0,61,0.00,,,0.00,,2013-02-13 22:02:00,
2013-02-13 16:11:00,34.0,23.0,-100.00,WSW,240,2.0,4.0,63,0.00,,,0.00,,2013-02-13 22:11:00,
2013-02-13 16:21:00,34.0,23.0,-100.00,SW,225,2.0,3.0,64,0.00,,,0.00,,2013-02-13 22:21:00,
2013-02-13 16:31:00,34.0,23.0,-100.00,WSW,250,2.0,2.0,63,0.00,,,0.00,,2013-02-13 22:31:00,
2013-02-13 16:42:00,33.0,23.0,-100.00,SSW,205,1.0,2.0,64,0.00,,,0.00,,2013-02-13 22:42:00,
2013-02-13 16:51:00,33.0,23.0,-100.00,SSW,205,0.0,1.0,64,0.00,,,0.00,,2013-02-13 22:51:00,
2013-02-13 17:01:00,34.0,23.0,-100.00,South,180,0.0,1.0,64,0.00,,,0.00,,2013-02-13 23:01:00,
2013-02-13 17:11:00,33.0,23.0,-100.00,South,180,0.0,0.0,64,0.00,,,0.00,,2013-02-13 23:11:00,
2013-02-13 17:21:00,32.0,23.0,-100.00,East,90,0.0,0.0,66,0.00,,,0.00,,2013-02-13 23:21:00,
2013-02-13 17:32:00,32.0,23.0,-100.00,NNE,30,0.0,1.0,68,0.00,,,0.00,,2013-02-13 23:32:00,
2013-02-13 17:41:00,31.0,23.0,-100.00,NE,40,1.0,1.0,71,0.00,,,0.00,,2013-02-13 23:41:00,
2013-02-13 17:52:00,31.0,23.0,-100.00,NNE,30,1.0,2.0,74,0.00,,,0.00,,2013-02-13 23:52:00,
2013-02-13 18:02:00,31.0,25.0,-100.00,NNE,20,2.0,3.0,75,0.00,,,0.00,,2013-02-14 00:02:00,
2013-02-13 18:11:00,31.0,25.0,-100.00,NNE,25,2.0,2.0,76,0.00,,,0.00,,2013-02-14 00:11:00,
2013-02-13 18:21:00,31.0,25.0,-100.00,NE,55,2.0,4.0,77,0.00,,,0.00,,2013-02-14 00:21:00,
2013-02-13 18:32:00,31.0,25.0,-100.00,NE,35,2.0,4.0,77,0.00,,,0.00,,2013-02-14 00:32:00,
2013-02-13 18:42:00,31.0,25.0,-100.00,NNE,30,3.0,6.0,78,0.00,,,0.00,,2013-02-14 00:42:00,
2013-02-13 18:51:00,31.0,25.0,-100.00,NE,40,4.0,9.0,78,0.00,,,0.00,,2013-02-14 00:51:00,
2013-02-13 19:01:00,31.0,25.0,-100.00,North,0,4.0,9.0,78,0.00,,,0.00,,2013-02-14 01:01:00,
2013-02-13 19:11:00,30.0,25.0,-100.00,NNE,30,4.0,7.0,78,0.00,,,0.00,,2013-02-14 01:11:00,
2013-02-13 19:21:00,30.0,25.0,-100.00,NNE,15,2.0,6.0,79,0.00,,,0.00,,2013-02-14 01:21:00,
2013-02-13 19:31:00,30.0,25.0,-100.00,North,0,2.0,6.0,79,0.00,,,0.00,,2013-02-14 01:31:00,
2013-02-13 19:41:00,30.0,25.0,-100.00,North,0,2.0,6.0,80,0.00,,,0.00,,2013-02-14 01:41:00,
2013-02-13 19:51:00,30.0,25.0,-100.00,North,5,2.0,6.0,80,0.00,,,0.00,,2013-02-14 01:51:00,
2013-02-13 20:01:00,30.0,25.0,-100.00,North,0,3.0,7.0,80,0.00,,,0.00,,2013-02-14 02:01:00,
2013-02-13 20:11:00,30.0,25.0,-100.00,North,10,4.0,7.0,80,0.00,,,0.00,,2013-02-14 02:11:00,
2013-02-13 20:21:00,30.0,25.0,-100.00,NNE,25,2.0,6.0,81,0.00,,,0.00,,2013-02-14 02:21:00,
2013-02-13 20:31:00,29.0,25.0,-100.00,North,5,4.0,5.0,81,0.00,,,0.00,,2013-02-14 02:31:00,
2013-02-13 20:41:00,29.0,25.0,-100.00,North,5,4.0,5.0,81,0.00,,,0.00,,2013-02-14 02:41:00,
2013-02-13 20:51:00,29.0,25.0,-100.00,North,5,4.0,5.0,81,0.00,,,0.00,,2013-02-14 02:51:00,
2013-02-13 21:02:00,29.0,25.0,-100.00,North,0,4.0,6.0,82,0.00,,,0.00,,2013-02-14 03:02:00,
2013-02-13 21:11:00,29.0,25.0,-100.00,North,355,3.0,6.0,83,0.00,,,0.00,,2013-02-14 03:11:00,
2013-02-13 21:21:00,28.0,25.0,-100.00,North,355,4.0,6.0,84,0.00,,,0.00,,2013-02-14 03:21:00,
2013-02-13 21:31:00,28.0,25.0,-100.00,North,0,3.0,7.0,84,0.00,,,0.00,,2013-02-14 03:31:00,
2013-02-13 21:42:00,28.0,23.0,-100.00,NNW,340,2.0,5.0,84,0.00,,,0.00,,2013-02-14 03:42:00,
2013-02-13 21:51:00,28.0,23.0,-100.00,North,350,2.0,6.0,85,0.00,,,0.00,,2013-02-14 03:51:00,
2013-02-13 22:01:00,27.0,23.0,-100.00,NNW,340,4.0,6.0,85,0.00,,,0.00,,2013-02-14 04:01:00,
2013-02-13 22:11:00,27.0,23.0,-100.00,NNW,340,2.0,6.0,86,0.00,,,0.00,,2013-02-14 04:11:00,
2013-02-13 22:21:00,27.0,23.0,-100.00,NNW,340,2.0,6.0,86,0.00,,,0.00,,2013-02-14 04:21:00,
2013-02-13 22:31:00,26.0,23.0,-100.00,NNW,330,2.0,6.0,87,0.00,,,0.00,,2013-02-14 04:31:00,
2013-02-13 22:41:00,26.0,23.0,-100.00,North,0,1.0,6.0,88,0.00,,,0.00,,2013-02-14 04:41:00,
2013-02-13 22:51:00,26.0,23.0,-100.00,NW,305,2.0,6.0,89,0.00,,,0.00,,2013-02-14 04:51:00,
2013-02-13 23:02:00,26.0,23.0,-100.00,North,350,2.0,6.0,89,0.00,,,0.00,,2013-02-14 05:02:00,
2013-02-13 23:11:00,26.0,23.0,-100.00,NNW,335,2.0,6.0,90,0.00,,,0.00,,2013-02-14 05:11:00,
2013-02-13 23:21:00,25.0,23.0,-100.00,NNW,330,2.0,4.0,90,0.00,,,0.00,,2013-02-14 05:21:00,
2013-02-13 23:31:00,25.0,23.0,-100.00,WNW,300,2.0,4.0,90,0.00,,,0.00,,2013-02-14 05:31:00,
2013-02-13 23:41:00,24.0,21.0,-100.00,North,355,0.0,3.0,91,0.00,,,0.00,,2013-02-14 05:41:00,
2013-02-13 23:52:00,24.0,21.0,-100.00,NW,325,1.0,2.0,91,0.00,,,0.00,,2013-02-14 05:52:00,